• Join FlightAware (Why Join?)
  • Login
  • US Flag 
03:12AM EST


 

Airport Tracker/Info


-or-


 

Live Flight TrackerFlight Track Log ✈ N193PC ✈ 12-12-2013 ✈ KOWD - KPWM

Flight Track Log - Related Links

Times and Time Zones

All times are in EST time to prevent confusion due to time zone crossing. See the N193PC flight status page for this flight to view local times or setup timezone preferences in your user account.

Time Position Orientation Groundspeed Altitude Reporting Facility
EST Latitude Longitude Course Direction KTS MPH feet Rate Location/Type
03:17PM 42.2667 -71.3000 309° West 227 261 3,000  Level KA90
03:18PM 42.3000 -71.3667 304° West 244 281 6,200 1,700 Climbing KA90
03:19PM 42.3667 -71.4000 340° North 253 291 6,400 1,900 Climbing KA90
03:20PM 42.4333 -71.4000 360° North 282 325 10,000 1,759 Climbing KA90
03:22PM 42.5378 -71.2069 54° Northeast 310 357 12,000 969 Climbing Boston Center
03:23PM 42.5850 -71.1017 59° Northeast 327 376 13,100 541 Climbing Boston Center
03:24PM 42.6322 -70.9964 59° Northeast 328 377 13,100  Level Boston Center
03:25PM 42.6833 -70.8819 59° Northeast 330 380 13,100  Level Boston Center
03:26PM 42.7297 -70.7756 59° Northeast 329 379 13,100  Level Boston Center
03:27PM 42.7764 -70.6689 59° Northeast 330 380 13,100  Level Boston Center
03:28PM 42.8422 -70.5783 45° Northeast 317 365 13,100 -49 Level Boston Center
03:29PM 42.9167 -70.5172 31° Northeast 313 360 13,000 -443 Descending Boston Center
03:30PM 42.9889 -70.4522 33° Northeast 312 359 12,200 -934 Descending Boston Center
03:31PM 43.0608 -70.3906 32° Northeast 306 352 11,100 -864 Descending Boston Center
03:32PM 43.1375 -70.3242 32° Northeast 311 358 10,400 -1,065 Descending Boston Center
03:33PM 43.2056 -70.2639 33° Northeast 295 339 8,900 -1,525 Descending Boston Center
03:34PM 43.2756 -70.2031 32° Northeast 275 316 7,300 -1,525 Descending Boston Center
03:35PM 43.3408 -70.1908 North 235 270 5,800 -1,537 Descending Boston Center
03:36PM 43.4019 -70.1831 North 221 254 4,200 -1,366 Descending Boston Center
03:37PM 43.4658 -70.1764 North 230 265 3,000 -634 Descending Boston Center
03:38PM 43.5336 -70.1683 North 226 260 2,900 -492 Descending Boston Center
03:39PM 43.5922 -70.1656 North 215 247 2,000 -738 Descending Boston Center
03:40PM 43.6453 -70.1900 342° North 201 231 1,400 -541 Descending Boston Center
03:41PM 43.6522 -70.2450 280° West 170 196 900 -639 Descending Boston Center
03:42PM 43.6444 -70.2961 258° West 131 151 100 4,967 Descending Boston Center
03:43PM 43.6469 -70.3339 275° West 129 148 11,000 10,721 Climbing Boston Center
03:45PM 43.6456 -70.3086 90° East  Level Estimated